CW3816 Weather Reports


time (UTC)temp
C
wind
direction
speed
KPH
gust
KPH
rain 1hr
cm
rain 24hr
cm
rain mn
cm
humidity
%
barometer
mb
20260507154843 12 227 0.0 0.0 0.00 0.00 0.18 64 1011.4
20260507153346 12 227 0.0 0.0 0.00 0.00 0.18 57 1011.6
20260507151842 12 210 0.0 0.0 0.00 0.00 0.18 60 1011.8
20260507150347 12 102 0.0 0.0 0.00 0.00 0.18 63 1011.6
20260507144841 12 258 0.0 0.0 0.00 0.00 0.18 60 1011.7
20260507143348 12 256 0.0 0.0 0.00 0.00 0.18 63 1012.1
20260507141852 12 157 0.0 0.0 0.00 0.00 0.18 63 1012.4
20260507140351 12 157 0.0 0.0 0.00 0.00 0.18 64 1012.1
20260507134846 12 213 0.0 0.0 0.00 0.00 0.18 66 1012.2
20260507133349 12 347 0.0 0.0 0.00 0.00 0.18 71 1012.0
20260507131907 13 89 0.0 0.0 0.00 0.00 0.18 80 1011.8
20260507130349 13 88 0.0 0.0 0.00 0.00 0.18 81 1011.7
20260507124845 12 104 0.0 0.0 0.00 0.00 0.18 85 1012.0
20260507123349 12 117 0.0 0.0 0.00 0.00 0.18 85 1011.7
20260507121841 12 117 0.0 0.0 0.00 0.00 0.18 87 1011.6
20260507120405 12 119 0.0 0.0 0.00 0.00 0.18 88 1011.1
20260507114844 12 123 0.0 0.0 0.00 0.00 0.18 88 1011.3
20260507113407 11 123 0.0 0.0 0.00 0.00 0.18 89 1011.3
20260507111842 11 123 0.0 0.0 0.00 0.00 0.18 90 1010.7
20260507110405 11 123 0.0 0.0 0.00 0.00 0.18 92 1011.2
20260507104849 11 123 0.0 0.0 0.00 0.00 0.18 92 1011.1
20260507103353 11 123 0.0 0.0 0.00 0.00 0.18 93 1011.0
20260507101847 11 123 0.0 0.0 0.00 0.00 0.18 93 1010.7
20260507100351 11 123 0.0 0.0 0.00 0.00 0.18 92 1010.6
20260507094909 11 123 0.0 0.0 0.00 0.00 0.18 92 1011.0
20260507093348 11 123 0.0 0.0 0.00 0.00 0.18 92 1010.9
20260507091842 11 123 0.0 0.0 0.00 0.00 0.18 91 1010.6
20260507090348 11 123 0.0 0.0 0.00 0.00 0.18 91 1010.5
20260507084845 12 123 0.0 0.0 0.00 0.00 0.18 90 1010.3
20260507083348 12 123 0.0 0.0 0.00 0.00 0.18 91 1010.4
20260507081849 12 123 0.0 0.0 0.00 0.00 0.18 91 1010.6
20260507080353 12 123 0.0 0.0 0.00 0.00 0.18 90 1010.4
20260507074852 12 106 0.0 0.0 0.00 0.00 0.18 92 1010.0
20260507073343 12 110 0.0 0.0 0.00 0.00 0.18 92 1009.7
20260507071845 13 233 0.0 0.0 0.00 0.00 0.15 92 1009.6
20260507070348 13 126 0.0 0.0 0.00 0.00 0.15 93 1009.8
20260507064852 13 124 0.0 0.0 0.00 0.00 0.15 94 1009.9
20260507063355 13 226 0.0 0.0 0.00 0.00 0.15 94 1009.9
20260507061854 14 107 0.0 0.0 0.00 0.00 0.15 95 1010.2
20260507060340 14 83 0.0 0.0 0.00 0.00 0.15 95 1009.4
20260507054843 14 64 0.0 0.0 0.00 0.00 0.15 95 1008.0
20260507053345 15 64 0.0 0.0 0.00 0.00 0.15 93 1008.0
20260507051849 15 64 0.0 0.0 0.00 0.00 0.13 93 1009.3
20260507050416 16 64 0.0 0.0 0.00 0.00 0.10 93 1009.9
20260507044912 16 62 0.0 0.0 0.00 0.00 0.08 93 1009.6
20260507043355 17 141 0.0 0.0 0.00 0.00 0.08 94 1009.0
20260507041858 17 141 0.0 0.0 0.00 0.00 0.05 93 1009.2
20260507040341 17 141 0.0 0.0 0.00 0.00 0.03 92 1009.1
20260507034841 17 141 0.0 0.0 0.00 0.00 0.23 91 1009.1
20260507033348 17 141 0.0 0.0 0.00 0.00 0.23 90 1008.5
20260507031844 17 141 0.0 0.0 0.00 0.00 0.23 89 1008.4
20260507030408 17 141 0.0 0.0 0.00 0.00 0.23 89 1009.1
20260507024908 17 141 0.0 0.0 0.00 0.00 0.23 88 1008.7
20260507023414 18 141 0.0 0.0 0.00 0.00 0.23 87 1008.5
20260507021847 18 141 0.0 0.0 0.00 0.00 0.23 85 1007.9
20260507020353 18 141 0.0 0.0 0.00 0.00 0.23 85 1008.2
20260507014855 18 141 0.0 0.0 0.00 0.00 0.23 83 1008.3
20260507013340 18 141 0.0 0.0 0.00 0.00 0.23 81 1008.4
20260507011839 18 141 0.0 0.0 0.00 0.00 0.23 81 1008.3
20260507010402 19 141 0.0 0.0 0.00 0.00 0.23 80 1008.2
20260507004842 19 141 0.0 0.0 0.00 0.00 0.23 79 1008.1
20260507003345 19 250 0.0 0.0 0.00 0.00 0.23 78 1008.0
20260507001845 20 257 0.0 0.0 0.00 0.00 0.23 77 1007.9
20260507000413 20 169 0.0 0.0 0.00 0.00 0.23 76 1007.9
20260506234909 20 237 0.0 0.0 0.00 0.00 0.23 75 1008.0
20260506233352 20 97 0.0 0.0 0.00 0.00 0.23 75 1007.5
20260506231912 21 140 0.0 0.0 0.00 0.00 0.23 74 1007.4
20260506230357 21 37 0.0 0.0 0.00 0.00 0.23 73 1007.7
20260506224839 21 268 0.0 0.0 0.00 0.00 0.23 72 1007.6
20260506223406 21 219 0.0 0.0 0.00 0.00 0.23 71 1007.6
20260506221844 21 76 0.0 0.0 0.00 0.00 0.23 70 1007.8
20260506220346 22 92 0.0 0.0 0.00 0.00 0.23 68 1007.5
20260506214843 22 248 0.0 0.0 0.00 0.00 0.23 68 1007.3
20260506213349 22 85 0.0 0.0 0.00 0.00 0.23 68 1007.5
20260506211907 22 251 0.0 0.0 0.00 0.00 0.23 68 1007.5
20260506210349 21 172 0.0 0.0 0.00 0.00 0.23 68 1007.5
20260506204847 21 356 0.0 0.0 0.00 0.00 0.23 67 1007.5
20260506203355 21 217 0.0 0.0 0.00 0.00 0.23 67 1007.6
20260506201851 21 119 0.0 0.0 0.00 0.00 0.23 69 1007.7
20260506200355 20 298 0.0 0.0 0.00 0.00 0.23 72 1007.7
20260506194856 20 277 0.0 0.0 0.00 0.00 0.23 75 1007.6
20260506193343 19 97 0.0 0.0 0.00 0.00 0.23 77 1007.8
20260506191857 19 251 0.0 0.0 0.00 0.00 0.23 77 1008.4
20260506190344 18 92 0.0 0.0 0.00 0.00 0.23 78 1008.4
20260506184901 18 226 0.0 0.0 0.00 0.00 0.23 79 1008.6
20260506183344 18 227 0.0 0.0 0.00 0.00 0.23 79 1008.7
20260506181841 18 69 0.0 0.0 0.00 0.00 0.23 78 1008.9
20260506180347 18 203 0.0 0.0 0.00 0.00 0.23 80 1008.8
20260506174842 18 155 0.0 0.0 0.00 0.00 0.23 80 1008.8
20260506173344 18 72 0.0 0.0 0.00 0.00 0.23 82 1009.0
20260506171904 17 171 0.0 0.0 0.00 0.00 0.23 84 1009.1
20260506170343 17 229 0.0 0.0 0.00 0.00 0.23 85 1009.1
20260506164840 17 188 0.0 0.0 0.00 0.00 0.23 86 1009.2
20260506163344 17 27 0.0 0.0 0.00 0.00 0.23 88 1009.5
20260506161846 16 55 0.0 0.0 0.00 0.00 0.23 89 1009.8
20260506160349 16 223 0.0 0.0 0.00 0.00 0.23 90 1009.5